This is the latest recevied weather packets stored in our database for station/object OK1FET-5. If no packets are shown the sender has not sent any weather packets the latest 10 day(s).
| Time | Temp. | Humidity | Pressure | Rain* | Wind** | Luminosity | Snow |
|---|---|---|---|---|---|---|---|
| 1788118408 | 21.11° C | 52% | 1016.2 hPa | - | - | - | - |
| 1788117812 | 21.11° C | 52% | 1016.2 hPa | - | - | - | - |
| 1788117217 | 20.56° C | 53% | 1016.2 hPa | - | - | - | - |
| 1788116621 | 20.56° C | 52% | 1016.1 hPa | - | - | - | - |
| 1788116025 | 20.56° C | 50% | 1016 hPa | - | - | - | - |
| 1788115429 | 20.56° C | 49% | 1016 hPa | - | - | - | - |
| 1788114834 | 20.56° C | 48% | 1015.9 hPa | - | - | - | - |
| 1788114238 | 21.11° C | 47% | 1015.9 hPa | - | - | - | - |
| 1788113642 | 21.11° C | 47% | 1015.7 hPa | - | - | - | - |
| 1788112450 | 21.67° C | 48% | 1015.4 hPa | - | - | - | - |
| 1788111855 | 21.67° C | 47% | 1015.4 hPa | - | - | - | - |
| 1788111259 | 22.22° C | 46% | 1015.4 hPa | - | - | - | - |
| 1788110663 | 22.78° C | 45% | 1015.3 hPa | - | - | - | - |
| 1788110067 | 23.33° C | 44% | 1015.2 hPa | - | - | - | - |
| 1788109472 | 23.89° C | 44% | 1015.2 hPa | - | - | - | - |
| 1788108876 | 24.44° C | 43% | 1015.2 hPa | - | - | - | - |
| 1788108280 | 25° C | 42% | 1015.1 hPa | - | - | - | - |
| 1788107684 | 26.11° C | 41% | 1015.2 hPa | - | - | - | - |
| 1788107089 | 26.11° C | 40% | 1015.2 hPa | - | - | - | - |
| 1788106493 | 26.67° C | 39% | 1015.2 hPa | - | - | - | - |
| 1788105897 | 27.22° C | 37% | 1015.1 hPa | - | - | - | - |
| 1788105301 | 28.33° C | 35% | 1015 hPa | - | - | - | - |
| 1788104705 | 29.44° C | 33% | 1015.1 hPa | - | - | - | - |
| 1788104110 | 30° C | 32% | 1015.1 hPa | - | - | - | - |
| 1788103514 | 30° C | 33% | 1015.2 hPa | - | - | - | - |
* Rain since midnight (hover to see other rain measurements)
** Current wind speed in m/s (hover to see current wind gust speed)